M2 PATHFINDER

Satellite information

Favourite Embed

Satellite Type and Status

PAYLOADIN ORBIT

Key statistics

Satellite M2 PATHFINDER at a glance.

Uptime

1959

Days in orbit

Revolutions

≈ 15.0

Per day

Orbit

SSO

Sun Synchronous Orbit

Inclination

97.8

Latest

Satellite identification and parameters

Extended collection of information and parameters for M2 PATHFINDER.

Object identification

Identified? True

Debris? False

Object name: M2 PATHFINDER

International designator: 2020-037E

Object number (NORAD): 45727

Object ID (CCSDS): 45727

Country: AUSTRALIA (AUS)

Current information (Y/N): Y

RCS size: SMALL

Orbital parameters

Period: 95.805 minutes

Inclination: 97.8158 deg

SMA: 6935.612 km

Apoapsis: 565.333 km

Periapsis: 549.62 km

RAAN: 120.2222 deg

Eccentricy: 0.0011328

Argument of periapsis: 229.3392 deg

Mean anomaly: 130.6849 deg

Mean motion: 15.03057596 rev/day

Mean motion (dot): 0.00004702 rev/day2

B* drag term: 0.00035309 1/REarth

Two-line elements (TLE)

Creation date: Oct. 23, 2025, 10:16 p.m.

Reference frame: TEME

Reference center: EARTH

Epoch: Oct. 23, 2025, 11 a.m. UTC

TLE line 0: 0 M2 PATHFINDER

TLE line 1: 1 45727U 20037E 25296.45889323 .00004702 00000-0 35309-3 0 9999

TLE line 2: 2 45727 97.8158 120.2222 0011328 229.3392 130.6849 15.03057596289912

Live tracking on map

Real-time ground track for satellite M2 PATHFINDER.

In-orbit conjunctions

There are no conjunctions computed for M2 PATHFINDER, at the moment. Check back to stay up to date, as we update our databases every day.

Go to all conjunctions

Associated space launch

This rideshare mission carries small satellites for NASA, University of New South Wales and for NRO. The mission has been named "Don't Stop Me Now" in recognition of Rocket Lab board member and avid Queen fan Scott Smith, who recently passed away.

M2 PATHFINDER was lifted into orbit during the mission ‘Electron | Don't Stop Me Now (Rideshare)’, on board a Electron space rocket.

The launch took place on June 13, 2020, 5:12 a.m. from Rocket Lab Launch Complex 1A.

For more information about the launch, click the button.

Launch to space Electron | Don't Stop Me Now (Rideshare)
Electron | Don't Stop Me Now (Rideshare)

Agency: N/A

Status: Launch Successful

Launch date: June 13, 2020, 5:12 a.m. UTC

Rocket: Electron

Launch pad: Rocket Lab Launch Complex 1A

Location: Rocket Lab Launch Complex 1, Mahia Peninsula, New Zealand

...

Latest news about this satellite

News about space launch
Rocket Lab launches 12th Electron, continues work on future plans

News about space launch
University-built CubeSat launched with swarm of auroral science nodes

News about space launch
Rocket Lab launches NRO, university payloads


Newsletter sign-up

Weekly statistics, charts and insights to help you stay on top of the space industry.